datetime,flow
1937-10-01,75.0
1937-10-02,75.0
1937-10-03,75.0
1937-10-04,75.0
1937-10-05,75.0
1937-10-06,75.0
1937-10-07,75.0
1937-10-08,75.0
1937-10-09,75.0
1937-10-10,75.0
1937-10-11,75.0
1937-10-12,75.0
1937-10-13,75.0
1937-10-14,75.0
1937-10-15,75.0
1937-10-16,75.0
1937-10-17,75.0
1937-10-18,75.0
1937-10-19,75.0
1937-10-20,75.0
1937-10-21,75.0
1937-10-22,75.0
1937-10-23,75.0
1937-10-24,75.0
1937-10-25,75.0
1937-10-26,75.0
1937-10-27,75.0
1937-10-28,75.0
1937-10-29,75.0
1937-10-30,75.0
1937-10-31,75.0
1937-11-01,65.0
1937-11-02,65.0
1937-11-03,65.0
1937-11-04,65.0
1937-11-05,65.0
1937-11-06,65.0
1937-11-07,65.0
1937-11-08,65.0
1937-11-09,65.0
1937-11-10,65.0
1937-11-11,65.0
1937-11-12,65.0
1937-11-13,65.0
1937-11-14,65.0
1937-11-15,65.0
1937-11-16,65.0
1937-11-17,65.0
1937-11-18,65.0
1937-11-19,65.0
1937-11-20,65.0
1937-11-21,65.0
1937-11-22,65.0
1937-11-23,65.0
1937-11-24,65.0
1937-11-25,65.0
1937-11-26,65.0
1937-11-27,65.0
1937-11-28,65.0
1937-11-29,65.0
1937-11-30,65.0
1937-12-01,55.0
1937-12-02,55.0
1937-12-03,55.0
1937-12-04,55.0
1937-12-05,55.0
1937-12-06,55.0
1937-12-07,55.0
1937-12-08,55.0
1937-12-09,55.0
1937-12-10,55.0
1937-12-11,55.0
1937-12-12,55.0
1937-12-13,55.0
1937-12-14,55.0
1937-12-15,55.0
1937-12-16,55.0
1937-12-17,55.0
1937-12-18,55.0
1937-12-19,55.0
1937-12-20,55.0
1937-12-21,55.0
1937-12-22,55.0
1937-12-23,55.0
1937-12-24,55.0
1937-12-25,55.0
1937-12-26,55.0
1937-12-27,55.0
1937-12-28,55.0
1937-12-29,55.0
1937-12-30,55.0
1937-12-31,55.0
1938-01-01,45.0
1938-01-02,45.0
1938-01-03,45.0
1938-01-04,45.0
1938-01-05,45.0
1938-01-06,45.0
1938-01-07,45.0
1938-01-08,45.0
1938-01-09,45.0
1938-01-10,45.0
1938-01-11,45.0
1938-01-12,45.0
1938-01-13,45.0
1938-01-14,45.0
1938-01-15,45.0
1938-01-16,45.0
1938-01-17,45.0
1938-01-18,45.0
1938-01-19,45.0
1938-01-20,45.0
1938-01-21,45.0
1938-01-22,45.0
1938-01-23,45.0
1938-01-24,45.0
1938-01-25,45.0
1938-01-26,45.0
1938-01-27,45.0
1938-01-28,45.0
1938-01-29,45.0
1938-01-30,45.0
1938-01-31,45.0
1938-02-01,45.0
1938-02-02,45.0
1938-02-03,45.0
1938-02-04,45.0
1938-02-05,45.0
1938-02-06,45.0
1938-02-07,45.0
1938-02-08,45.0
1938-02-09,45.0
1938-02-10,45.0
1938-02-11,45.0
1938-02-12,45.0
1938-02-13,45.0
1938-02-14,45.0
1938-02-15,45.0
1938-02-16,45.0
1938-02-17,45.0
1938-02-18,45.0
1938-02-19,45.0
1938-02-20,45.0
1938-02-21,45.0
1938-02-22,45.0
1938-02-23,45.0
1938-02-24,45.0
1938-02-25,45.0
1938-02-26,45.0
1938-02-27,45.0
1938-02-28,45.0
1938-03-01,65.0
1938-03-02,65.0
1938-03-03,65.0
1938-03-04,65.0
1938-03-05,65.0
1938-03-06,65.0
1938-03-07,65.0
1938-03-08,65.0
1938-03-09,65.0
1938-03-10,65.0
1938-03-11,65.0
1938-03-12,65.0
1938-03-13,65.0
1938-03-14,65.0
1938-03-15,65.0
1938-03-16,65.0
1938-03-17,65.0
1938-03-18,65.0
1938-03-19,65.0
1938-03-20,65.0
1938-03-21,65.0
1938-03-22,65.0
1938-03-23,65.0
1938-03-24,65.0
1938-03-25,65.0
1938-03-26,65.0
1938-03-27,65.0
1938-03-28,65.0
1938-03-29,65.0
1938-03-30,65.0
1938-03-31,65.0
1938-04-01,190.0
1938-04-02,190.0
1938-04-03,190.0
1938-04-04,190.0
1938-04-05,190.0
1938-04-06,190.0
1938-04-07,190.0
1938-04-08,190.0
1938-04-09,190.0
1938-04-10,190.0
1938-04-11,190.0
1938-04-12,190.0
1938-04-13,190.0
1938-04-14,190.0
1938-04-15,190.0
1938-04-16,190.0
1938-04-17,190.0
1938-04-18,190.0
1938-04-19,190.0
1938-04-20,530.0
1938-04-21,550.0
1938-04-22,545.0
1938-04-23,567.0
1938-04-24,584.0
1938-04-25,606.0
1938-04-26,624.0
1938-04-27,624.0
1938-04-28,545.0
1938-04-29,535.0
1938-04-30,525.0
1938-05-01,584.0
1938-05-02,578.0
1938-05-03,505.0
1938-05-04,475.0
1938-05-05,408.0
1938-05-06,384.0
1938-05-07,364.0
1938-05-08,316.0
1938-05-09,307.0
1938-05-10,284.0
1938-05-11,265.0
1938-05-12,265.0
1938-05-13,270.0
1938-05-14,288.0
1938-05-15,379.0
1938-05-16,510.0
1938-05-17,589.0
1938-05-18,636.0
1938-05-19,624.0
1938-05-20,584.0
1938-05-21,515.0
1938-05-22,510.0
1938-05-23,556.0
1938-05-24,525.0
1938-05-25,456.0
1938-05-26,461.0
1938-05-27,515.0
1938-05-28,606.0
1938-05-29,714.0
1938-05-30,853.0
1938-05-31,905.0
1938-06-01,931.0
1938-06-02,938.0
1938-06-03,918.0
1938-06-04,918.0
1938-06-05,905.0
1938-06-06,886.0
1938-06-07,905.0
1938-06-08,879.0
1938-06-09,816.0
1938-06-10,750.0
1938-06-11,708.0
1938-06-12,642.0
1938-06-13,612.0
1938-06-14,648.0
1938-06-15,666.0
1938-06-16,562.0
1938-06-17,530.0
1938-06-18,505.0
1938-06-19,490.0
1938-06-20,475.0
1938-06-21,510.0
1938-06-22,545.0
1938-06-23,567.0
1938-06-24,600.0
1938-06-25,572.0
1938-06-26,461.0
1938-06-27,388.0
1938-06-28,369.0
1938-06-29,360.0
1938-06-30,403.0
1938-07-01,388.0
1938-07-02,345.0
1938-07-03,307.0
1938-07-04,256.0
1938-07-05,212.0
1938-07-06,170.0
1938-07-07,143.0
1938-07-08,134.0
1938-07-09,109.0
1938-07-10,98.0
1938-07-11,86.0
1938-07-12,77.0
1938-07-13,82.0
1938-07-14,86.0
1938-07-15,111.0
1938-07-16,150.0
1938-07-17,121.0
1938-07-18,105.0
1938-07-19,92.0
1938-07-20,89.0
1938-07-21,87.0
1938-07-22,92.0
1938-07-23,124.0
1938-07-24,153.0
1938-07-25,167.0
1938-07-26,150.0
1938-07-27,150.0
1938-07-28,191.0
1938-07-29,191.0
1938-07-30,174.0
1938-07-31,143.0
1938-08-01,134.0
1938-08-02,136.0
1938-08-03,139.0
1938-08-04,143.0
1938-08-05,143.0
1938-08-06,139.0
1938-08-07,143.0
1938-08-08,160.0
1938-08-09,178.0
1938-08-10,178.0
1938-08-11,183.0
1938-08-12,183.0
1938-08-13,178.0
1938-08-14,178.0
1938-08-15,170.0
1938-08-16,156.0
1938-08-17,143.0
1938-08-18,139.0
1938-08-19,128.0
1938-08-20,118.0
1938-08-21,114.0
1938-08-22,109.0
1938-08-23,105.0
1938-08-24,105.0
1938-08-25,107.0
1938-08-26,100.0
1938-08-27,96.0
1938-08-28,98.0
1938-08-29,100.0
1938-08-30,102.0
1938-08-31,109.0
1938-09-01,163.0
1938-09-02,216.0
1938-09-03,230.0
1938-09-04,230.0
1938-09-05,216.0
1938-09-06,204.0
1938-09-07,195.0
1938-09-08,183.0
1938-09-09,146.0
1938-09-10,136.0
1938-09-11,167.0
1938-09-12,221.0
1938-09-13,297.0
1938-09-14,256.0
1938-09-15,212.0
1938-09-16,195.0
1938-09-17,187.0
1938-09-18,178.0
1938-09-19,156.0
1938-09-20,146.0
1938-09-21,134.0
1938-09-22,128.0
1938-09-23,124.0
1938-09-24,126.0
1938-09-25,128.0
1938-09-26,124.0
1938-09-27,118.0
1938-09-28,111.0
1938-09-29,109.0
1938-09-30,103.0
1938-10-01,96.0
1938-10-02,86.0
1938-10-03,90.0
1938-10-04,89.0
1938-10-05,89.0
1938-10-06,111.0
1938-10-07,199.0
1938-10-08,302.0
1938-10-09,274.0
1938-10-10,204.0
1938-10-11,204.0
1938-10-12,167.0
1938-10-13,153.0
1938-10-14,150.0
1938-10-15,153.0
1938-10-16,160.0
1938-10-17,163.0
1938-10-18,160.0
1938-10-19,150.0
1938-10-20,146.0
1938-10-21,143.0
1938-10-22,143.0
1938-10-23,136.0
1938-10-24,134.0
1938-10-25,134.0
1938-10-26,131.0
1938-10-27,146.0
1938-10-28,156.0
1938-10-29,156.0
1938-10-30,153.0
1938-10-31,156.0
1938-11-01,156.0
1938-11-02,163.0
1938-11-03,163.0
1938-11-04,170.0
1938-11-05,185.0
1938-11-06,150.0
1938-11-07,125.0
1938-11-08,130.0
1938-11-09,175.0
1938-11-10,160.0
1938-11-11,150.0
1938-11-12,156.0
1938-11-13,114.0
1938-11-14,109.0
1938-11-15,116.0
1938-11-16,126.0
1938-11-17,128.0
1938-11-18,121.0
1938-11-19,109.0
1938-11-20,121.0
1938-11-21,120.0
1938-11-22,105.0
1938-11-23,90.0
1938-11-24,85.0
1938-11-25,105.0
1938-11-26,110.0
1938-11-27,115.0
1938-11-28,115.0
1938-11-29,115.0
1938-11-30,115.0
1938-12-01,110.0
1938-12-02,100.0
1938-12-03,100.0
1938-12-04,115.0
1938-12-05,110.0
1938-12-06,110.0
1938-12-07,100.0
1938-12-08,105.0
1938-12-09,105.0
1938-12-10,105.0
1938-12-11,105.0
1938-12-12,100.0
1938-12-13,90.0
1938-12-14,76.0
1938-12-15,80.0
1938-12-16,85.0
1938-12-17,74.0
1938-12-18,66.0
1938-12-19,90.0
1938-12-20,100.0
1938-12-21,105.0
1938-12-22,100.0
1938-12-23,90.0
1938-12-24,76.0
1938-12-25,68.0
1938-12-26,74.0
1938-12-27,72.0
1938-12-28,70.0
1938-12-29,72.0
1938-12-30,74.0
1938-12-31,76.0
1939-01-01,80.0
1939-01-02,85.0
1939-01-03,90.0
1939-01-04,95.0
1939-01-05,80.0
1939-01-06,90.0
1939-01-07,80.0
1939-01-08,85.0
1939-01-09,78.0
1939-01-10,72.0
1939-01-11,68.0
1939-01-12,72.0
1939-01-13,78.0
1939-01-14,76.0
1939-01-15,70.0
1939-01-16,68.0
1939-01-17,76.0
1939-01-18,95.0
1939-01-19,80.0
1939-01-20,80.0
1939-01-21,74.0
1939-01-22,76.0
1939-01-23,74.0
1939-01-24,68.0
1939-01-25,66.0
1939-01-26,68.0
1939-01-27,76.0
1939-01-28,90.0
1939-01-29,85.0
1939-01-30,80.0
1939-01-31,78.0
1939-02-01,80.0
1939-02-02,68.0
1939-02-03,70.0
1939-02-04,78.0
1939-02-05,80.0
1939-02-06,72.0
1939-02-07,78.0
1939-02-08,80.0
1939-02-09,85.0
1939-02-10,72.0
1939-02-11,74.0
1939-02-12,76.0
1939-02-13,74.0
1939-02-14,74.0
1939-02-15,80.0
1939-02-16,78.0
1939-02-17,58.0
1939-02-18,56.0
1939-02-19,76.0
1939-02-20,74.0
1939-02-21,56.0
1939-02-22,50.0
1939-02-23,56.0
1939-02-24,66.0
1939-02-25,72.0
1939-02-26,76.0
1939-02-27,78.0
1939-02-28,68.0
1939-03-01,72.0
1939-03-02,66.0
1939-03-03,70.0
1939-03-04,66.0
1939-03-05,60.0
1939-03-06,62.0
1939-03-07,70.0
1939-03-08,60.0
1939-03-09,62.0
1939-03-10,66.0
1939-03-11,72.0
1939-03-12,72.0
1939-03-13,76.0
1939-03-14,85.0
1939-03-15,80.0
1939-03-16,89.0
1939-03-17,114.0
1939-03-18,125.0
1939-03-19,132.0
1939-03-20,156.0
1939-03-21,188.0
1939-03-22,276.0
1939-03-23,574.0
1939-03-24,1080.0
1939-03-25,1060.0
1939-03-26,897.0
1939-03-27,867.0
1939-03-28,640.0
1939-03-29,562.0
1939-03-30,425.0
1939-03-31,415.0
1939-04-01,440.0
1939-04-02,540.0
1939-04-03,645.0
1939-04-04,640.0
1939-04-05,623.0
1939-04-06,596.0
1939-04-07,502.0
1939-04-08,455.0
1939-04-09,496.0
1939-04-10,535.0
1939-04-11,460.0
1939-04-12,425.0
1939-04-13,460.0
1939-04-14,475.0
1939-04-15,355.0
1939-04-16,280.0
1939-04-17,235.0
1939-04-18,215.0
1939-04-19,215.0
1939-04-20,231.0
1939-04-21,253.0
1939-04-22,305.0
1939-04-23,345.0
1939-04-24,365.0
1939-04-25,330.0
1939-04-26,305.0
1939-04-27,290.0
1939-04-28,300.0
1939-04-29,355.0
1939-04-30,410.0
1939-05-01,425.0
1939-05-02,435.0
1939-05-03,455.0
1939-05-04,460.0
1939-05-05,465.0
1939-05-06,470.0
1939-05-07,460.0
1939-05-08,435.0
1939-05-09,420.0
1939-05-10,445.0
1939-05-11,460.0
1939-05-12,440.0
1939-05-13,405.0
1939-05-14,370.0
1939-05-15,400.0
1939-05-16,445.0
1939-05-17,460.0
1939-05-18,440.0
1939-05-19,410.0
1939-05-20,440.0
1939-05-21,450.0
1939-05-22,475.0
1939-05-23,470.0
1939-05-24,435.0
1939-05-25,420.0
1939-05-26,390.0
1939-05-27,345.0
1939-05-28,325.0
1939-05-29,325.0
1939-05-30,345.0
1939-05-31,365.0
1939-06-01,395.0
1939-06-02,390.0
1939-06-03,345.0
1939-06-04,325.0
1939-06-05,340.0
1939-06-06,325.0
1939-06-07,295.0
1939-06-08,266.0
1939-06-09,248.0
1939-06-10,199.0
1939-06-11,178.0
1939-06-12,174.0
1939-06-13,164.0
1939-06-14,167.0
1939-06-15,146.0
1939-06-16,112.0
1939-06-17,85.0
1939-06-18,70.0
1939-06-19,68.0
1939-06-20,68.0
1939-06-21,70.0
1939-06-22,68.0
1939-06-23,68.0
1939-06-24,71.0
1939-06-25,76.0
1939-06-26,94.0
1939-06-27,91.0
1939-06-28,89.0
1939-06-29,85.0
1939-06-30,80.0
1939-07-01,83.0
1939-07-02,80.0
1939-07-03,76.0
1939-07-04,74.0
1939-07-05,68.0
1939-07-06,60.0
1939-07-07,56.0
1939-07-08,56.0
1939-07-09,51.0
1939-07-10,45.0
1939-07-11,40.0
1939-07-12,39.0
1939-07-13,42.0
1939-07-14,43.0
1939-07-15,44.0
1939-07-16,44.0
1939-07-17,44.0
1939-07-18,43.0
1939-07-19,44.0
1939-07-20,42.0
1939-07-21,42.0
1939-07-22,43.0
1939-07-23,42.0
1939-07-24,43.0
1939-07-25,46.0
1939-07-26,47.0
1939-07-27,54.0
1939-07-28,60.0
1939-07-29,56.0
1939-07-30,56.0
1939-07-31,74.0
1939-08-01,94.0
1939-08-02,98.0
1939-08-03,112.0
1939-08-04,114.0
1939-08-05,112.0
1939-08-06,112.0
1939-08-07,195.0
1939-08-08,227.0
1939-08-09,188.0
1939-08-10,153.0
1939-08-11,136.0
1939-08-12,125.0
1939-08-13,117.0
1939-08-14,114.0
1939-08-15,101.0
1939-08-16,94.0
1939-08-17,89.0
1939-08-18,85.0
1939-08-19,78.0
1939-08-20,76.0
1939-08-21,76.0
1939-08-22,78.0
1939-08-23,73.0
1939-08-24,70.0
1939-08-25,65.0
1939-08-26,68.0
1939-08-27,68.0
1939-08-28,83.0
1939-08-29,83.0
1939-08-30,85.0
1939-08-31,80.0
1939-09-01,73.0
1939-09-02,80.0
1939-09-03,73.0
1939-09-04,68.0
1939-09-05,66.0
1939-09-06,66.0
1939-09-07,70.0
1939-09-08,80.0
1939-09-09,83.0
1939-09-10,76.0
1939-09-11,76.0
1939-09-12,74.0
1939-09-13,76.0
1939-09-14,73.0
1939-09-15,71.0
1939-09-16,73.0
1939-09-17,70.0
1939-09-18,63.0
1939-09-19,63.0
1939-09-20,62.0
1939-09-21,57.0
1939-09-22,59.0
1939-09-23,59.0
1939-09-24,57.0
1939-09-25,57.0
1939-09-26,59.0
1939-09-27,56.0
1939-09-28,56.0
1939-09-29,56.0
1939-09-30,52.0
1939-10-01,50.0
1939-10-02,47.0
1939-10-03,46.0
1939-10-04,45.0
1939-10-05,46.0
1939-10-06,45.0
1939-10-07,45.0
1939-10-08,46.0
1939-10-09,46.0
1939-10-10,51.0
1939-10-11,51.0
1939-10-12,48.0
1939-10-13,48.0
1939-10-14,52.0
1939-10-15,56.0
1939-10-16,59.0
1939-10-17,57.0
1939-10-18,57.0
1939-10-19,59.0
1939-10-20,60.0
1939-10-21,65.0
1939-10-22,65.0
1939-10-23,63.0
1939-10-24,65.0
1939-10-25,65.0
1939-10-26,73.0
1939-10-27,89.0
1939-10-28,83.0
1939-10-29,76.0
1939-10-30,76.0
1939-10-31,80.0
1939-11-01,87.0
1939-11-02,87.0
1939-11-03,91.0
1939-11-04,94.0
1939-11-05,89.0
1939-11-06,98.0
1939-11-07,112.0
1939-11-08,103.0
1939-11-09,101.0
1939-11-10,101.0
1939-11-11,96.0
1939-11-12,101.0
1939-11-13,109.0
1939-11-14,103.0
1939-11-15,98.0
1939-11-16,89.0
1939-11-17,80.0
1939-11-18,87.0
1939-11-19,83.0
1939-11-20,80.0
1939-11-21,83.0
1939-11-22,83.0
1939-11-23,87.0
1939-11-24,87.0
1939-11-25,89.0
1939-11-26,89.0
1939-11-27,96.0
1939-11-28,96.0
1939-11-29,87.0
1939-11-30,83.0
1939-12-01,83.0
1939-12-02,83.0
1939-12-03,83.0
1939-12-04,85.0
1939-12-05,89.0
1939-12-06,89.0
1939-12-07,92.0
1939-12-08,94.0
1939-12-09,96.0
1939-12-10,91.0
1939-12-11,91.0
1939-12-12,92.0
1939-12-13,76.0
1939-12-14,68.0
1939-12-15,73.0
1939-12-16,78.0
1939-12-17,87.0
1939-12-18,89.0
1939-12-19,80.0
1939-12-20,72.0
1939-12-21,64.0
1939-12-22,62.0
1939-12-23,64.0
1939-12-24,62.0
1939-12-25,62.0
1939-12-26,62.0
1939-12-27,56.0
1939-12-28,52.0
1939-12-29,52.0
1939-12-30,55.0
1939-12-31,58.0
1940-01-01,56.0
1940-01-02,59.0
1940-01-03,59.0
1940-01-04,65.0
1940-01-05,65.0
1940-01-06,65.0
1940-01-07,64.0
1940-01-08,58.0
1940-01-09,61.0
1940-01-10,61.0
1940-01-11,62.0
1940-01-12,64.0
1940-01-13,62.0
1940-01-14,60.0
1940-01-15,60.0
1940-01-16,58.0
1940-01-17,57.0
1940-01-18,60.0
1940-01-19,65.0
1940-01-20,64.0
1940-01-21,54.0
1940-01-22,56.0
1940-01-23,58.0
1940-01-24,61.0
1940-01-25,64.0
1940-01-26,64.0
1940-01-27,67.0
1940-01-28,64.0
1940-01-29,58.0
1940-01-30,61.0
1940-01-31,64.0
1940-02-01,68.0
1940-02-02,76.0
1940-02-03,76.0
1940-02-04,72.0
1940-02-05,70.0
1940-02-06,68.0
1940-02-07,67.0
1940-02-08,68.0
1940-02-09,70.0
1940-02-10,68.0
1940-02-11,68.0
1940-02-12,68.0
1940-02-13,70.0
1940-02-14,68.0
1940-02-15,67.0
1940-02-16,67.0
1940-02-17,70.0
1940-02-18,70.0
1940-02-19,70.0
1940-02-20,68.0
1940-02-21,68.0
1940-02-22,67.0
1940-02-23,67.0
1940-02-24,67.0
1940-02-25,67.0
1940-02-26,67.0
1940-02-27,65.0
1940-02-28,65.0
1940-02-29,68.0
1940-03-01,68.0
1940-03-02,68.0
1940-03-03,72.0
1940-03-04,72.0
1940-03-05,73.0
1940-03-06,73.0
1940-03-07,72.0
1940-03-08,72.0
1940-03-09,75.0
1940-03-10,78.0
1940-03-11,80.0
1940-03-12,82.0
1940-03-13,78.0
1940-03-14,80.0
1940-03-15,80.0
1940-03-16,78.0
1940-03-17,87.0
1940-03-18,91.0
1940-03-19,98.0
1940-03-20,109.0
1940-03-21,114.0
1940-03-22,138.0
1940-03-23,158.0
1940-03-24,173.0
1940-03-25,193.0
1940-03-26,230.0
1940-03-27,276.0
1940-03-28,269.0
1940-03-29,227.0
1940-03-30,213.0
1940-03-31,220.0
1940-04-01,237.0
1940-04-02,224.0
1940-04-03,183.0
1940-04-04,158.0
1940-04-05,158.0
1940-04-06,164.0
1940-04-07,155.0
1940-04-08,140.0
1940-04-09,138.0
1940-04-10,135.0
1940-04-11,126.0
1940-04-12,116.0
1940-04-13,118.0
1940-04-14,132.0
1940-04-15,158.0
1940-04-16,170.0
1940-04-17,161.0
1940-04-18,143.0
1940-04-19,138.0
1940-04-20,132.0
1940-04-21,135.0
1940-04-22,140.0
1940-04-23,138.0
1940-04-24,135.0
1940-04-25,132.0
1940-04-26,129.0
1940-04-27,118.0
1940-04-28,114.0
1940-04-29,107.0
1940-04-30,103.0
1940-05-01,103.0
1940-05-02,94.0
1940-05-03,87.0
1940-05-04,78.0
1940-05-05,59.0
1940-05-06,55.0
1940-05-07,44.0
1940-05-08,31.0
1940-05-09,30.0
1940-05-10,34.0
1940-05-11,48.0
1940-05-12,59.0
1940-05-13,75.0
1940-05-14,83.0
1940-05-15,92.0
1940-05-16,109.0
1940-05-17,116.0
1940-05-18,152.0
1940-05-19,132.0
1940-05-20,111.0
1940-05-21,149.0
1940-05-22,203.0
1940-05-23,183.0
1940-05-24,135.0
1940-05-25,111.0
1940-05-26,98.0
1940-05-27,103.0
1940-05-28,89.0
1940-05-29,85.0
1940-05-30,89.0
1940-05-31,87.0
1940-06-01,94.0
1940-06-02,94.0
1940-06-03,94.0
1940-06-04,89.0
1940-06-05,83.0
1940-06-06,83.0
1940-06-07,82.0
1940-06-08,72.0
1940-06-09,73.0
1940-06-10,72.0
1940-06-11,68.0
1940-06-12,64.0
1940-06-13,59.0
1940-06-14,59.0
1940-06-15,59.0
1940-06-16,59.0
1940-06-17,58.0
1940-06-18,61.0
1940-06-19,67.0
1940-06-20,68.0
1940-06-21,68.0
1940-06-22,68.0
1940-06-23,61.0
1940-06-24,55.0
1940-06-25,56.0
1940-06-26,58.0
1940-06-27,58.0
1940-06-28,51.0
1940-06-29,47.0
1940-06-30,47.0
1940-07-01,44.0
1940-07-02,46.0
1940-07-03,44.0
1940-07-04,46.0
1940-07-05,46.0
1940-07-06,46.0
1940-07-07,43.0
1940-07-08,44.0
1940-07-09,46.0
1940-07-10,47.0
1940-07-11,46.0
1940-07-12,43.0
1940-07-13,46.0
1940-07-14,46.0
1940-07-15,49.0
1940-07-16,51.0
1940-07-17,55.0
1940-07-18,56.0
1940-07-19,54.0
1940-07-20,49.0
1940-07-21,48.0
1940-07-22,51.0
1940-07-23,52.0
1940-07-24,52.0
1940-07-25,55.0
1940-07-26,55.0
1940-07-27,56.0
1940-07-28,61.0
1940-07-29,64.0
1940-07-30,70.0
1940-07-31,70.0
1940-08-01,62.0
1940-08-02,61.0
1940-08-03,61.0
1940-08-04,58.0
1940-08-05,58.0
1940-08-06,62.0
1940-08-07,75.0
1940-08-08,80.0
1940-08-09,82.0
1940-08-10,78.0
1940-08-11,76.0
1940-08-12,72.0
1940-08-13,72.0
1940-08-14,70.0
1940-08-15,67.0
1940-08-16,67.0
1940-08-17,64.0
1940-08-18,62.0
1940-08-19,67.0
1940-08-20,70.0
1940-08-21,75.0
1940-08-22,67.0
1940-08-23,64.0
1940-08-24,65.0
1940-08-25,73.0
1940-08-26,78.0
1940-08-27,80.0
1940-08-28,78.0
1940-08-29,75.0
1940-08-30,65.0
1940-08-31,56.0
1940-09-01,49.0
1940-09-02,47.0
1940-09-03,46.0
1940-09-04,46.0
1940-09-05,43.0
1940-09-06,41.0
1940-09-07,40.0
1940-09-08,38.0
1940-09-09,38.0
1940-09-10,38.0
1940-09-11,36.0
1940-09-12,31.0
1940-09-13,30.0
1940-09-14,30.0
1940-09-15,28.0
1940-09-16,26.0
1940-09-17,26.0
1940-09-18,27.0
1940-09-19,26.0
1940-09-20,27.0
1940-09-21,28.0
1940-09-22,29.0
1940-09-23,30.0
1940-09-24,32.0
1940-09-25,37.0
1940-09-26,38.0
1940-09-27,41.0
1940-09-28,41.0
1940-09-29,43.0
1940-09-30,46.0
1940-10-01,56.0
1940-10-02,56.0
1940-10-03,56.0
1940-10-04,55.0
1940-10-05,55.0
1940-10-06,55.0
1940-10-07,52.0
1940-10-08,54.0
1940-10-09,55.0
1940-10-10,52.0
1940-10-11,52.0
1940-10-12,52.0
1940-10-13,52.0
1940-10-14,52.0
1940-10-15,54.0
1940-10-16,55.0
1940-10-17,55.0
1940-10-18,56.0
1940-10-19,58.0
1940-10-20,56.0
1940-10-21,55.0
1940-10-22,51.0
1940-10-23,51.0
1940-10-24,52.0
1940-10-25,48.0
1940-10-26,47.0
1940-10-27,49.0
1940-10-28,56.0
1940-10-29,61.0
1940-10-30,62.0
1940-10-31,62.0
1940-11-01,61.0
1940-11-02,59.0
1940-11-03,64.0
1940-11-04,68.0
1940-11-05,65.0
1940-11-06,68.0
1940-11-07,72.0
1940-11-08,75.0
1940-11-09,76.0
1940-11-10,76.0
1940-11-11,65.0
1940-11-12,62.0
1940-11-13,62.0
1940-11-14,64.0
1940-11-15,67.0
1940-11-16,70.0
1940-11-17,71.0
1940-11-18,72.0
1940-11-19,71.0
1940-11-20,71.0
1940-11-21,70.0
1940-11-22,68.0
1940-11-23,68.0
1940-11-24,68.0
1940-11-25,68.0
1940-11-26,67.0
1940-11-27,65.0
1940-11-28,65.0
1940-11-29,67.0
1940-11-30,67.0
1940-12-01,66.0
1940-12-02,68.0
1940-12-03,71.0
1940-12-04,72.0
1940-12-05,72.0
1940-12-06,69.0
1940-12-07,68.0
1940-12-08,69.0
1940-12-09,70.0
1940-12-10,66.0
1940-12-11,66.0
1940-12-12,65.0
1940-12-13,65.0
1940-12-14,62.0
1940-12-15,59.0
1940-12-16,60.0
1940-12-17,62.0
1940-12-18,64.0
1940-12-19,66.0
1940-12-20,67.0
1940-12-21,65.0
1940-12-22,62.0
1940-12-23,58.0
1940-12-24,57.0
1940-12-25,57.0
1940-12-26,58.0
1940-12-27,59.0
1940-12-28,58.0
1940-12-29,56.0
1940-12-30,55.0
1940-12-31,56.0
1941-01-01,58.0
1941-01-02,61.0
1941-01-03,58.0
1941-01-04,53.0
1941-01-05,51.0
1941-01-06,53.0
1941-01-07,55.0
1941-01-08,58.0
1941-01-09,63.0
1941-01-10,62.0
1941-01-11,61.0
1941-01-12,61.0
1941-01-13,63.0
1941-01-14,64.0
1941-01-15,67.0
1941-01-16,67.0
1941-01-17,67.0
1941-01-18,67.0
1941-01-19,66.0
1941-01-20,66.0
1941-01-21,66.0
1941-01-22,66.0
1941-01-23,65.0
1941-01-24,67.0
1941-01-25,68.0
1941-01-26,68.0
1941-01-27,66.0
1941-01-28,67.0
1941-01-29,69.0
1941-01-30,71.0
1941-01-31,73.0
1941-02-01,73.0
1941-02-02,70.0
1941-02-03,67.0
1941-02-04,67.0
1941-02-05,68.0
1941-02-06,71.0
1941-02-07,73.0
1941-02-08,75.0
1941-02-09,76.0
1941-02-10,78.0
1941-02-11,78.0
1941-02-12,77.0
1941-02-13,77.0
1941-02-14,78.0
1941-02-15,78.0
1941-02-16,78.0
1941-02-17,79.0
1941-02-18,80.0
1941-02-19,80.0
1941-02-20,80.0
1941-02-21,81.0
1941-02-22,82.0
1941-02-23,84.0
1941-02-24,82.0
1941-02-25,81.0
1941-02-26,80.0
1941-02-27,80.0
1941-02-28,78.0
1941-03-01,92.0
1941-03-02,82.0
1941-03-03,87.0
1941-03-04,85.0
1941-03-05,80.0
1941-03-06,89.0
1941-03-07,87.0
1941-03-08,89.0
1941-03-09,85.0
1941-03-10,82.0
1941-03-11,78.0
1941-03-12,76.0
1941-03-13,80.0
1941-03-14,73.0
1941-03-15,73.0
1941-03-16,78.0
1941-03-17,76.0
1941-03-18,76.0
1941-03-19,83.0
1941-03-20,85.0
1941-03-21,82.0
1941-03-22,89.0
1941-03-23,96.0
1941-03-24,96.0
1941-03-25,100.0
1941-03-26,114.0
1941-03-27,126.0
1941-03-28,138.0
1941-03-29,140.0
1941-03-30,155.0
1941-03-31,167.0
1941-04-01,200.0
1941-04-02,190.0
1941-04-03,186.0
1941-04-04,179.0
1941-04-05,224.0
1941-04-06,241.0
1941-04-07,210.0
1941-04-08,213.0
1941-04-09,213.0
1941-04-10,237.0
1941-04-11,227.0
1941-04-12,227.0
1941-04-13,288.0
1941-04-14,248.0
1941-04-15,220.0
1941-04-16,210.0
1941-04-17,210.0
1941-04-18,200.0
1941-04-19,190.0
1941-04-20,164.0
1941-04-21,143.0
1941-04-22,143.0
1941-04-23,146.0
1941-04-24,155.0
1941-04-25,167.0
1941-04-26,173.0
1941-04-27,193.0
1941-04-28,230.0
1941-04-29,241.0
1941-04-30,244.0
1941-05-01,248.0
1941-05-02,244.0
1941-05-03,251.0
1941-05-04,266.0
1941-05-05,288.0
1941-05-06,255.0
1941-05-07,237.0
1941-05-08,241.0
1941-05-09,276.0
1941-05-10,307.0
1941-05-11,352.0
1941-05-12,388.0
1941-05-13,486.0
1941-05-14,634.0
1941-05-15,759.0
1941-05-16,831.0
1941-05-17,825.0
1941-05-18,807.0
1941-05-19,790.0
1941-05-20,740.0
1941-05-21,680.0
1941-05-22,600.0
1941-05-23,580.0
1941-05-24,560.0
1941-05-25,580.0
1941-05-26,620.0
1941-05-27,720.0
1941-05-28,700.0
1941-05-29,699.0
1941-05-30,675.0
1941-05-31,623.0
1941-06-01,612.0
1941-06-02,618.0
1941-06-03,579.0
1941-06-04,568.0
1941-06-05,628.0
1941-06-06,623.0
1941-06-07,634.0
1941-06-08,687.0
1941-06-09,735.0
1941-06-10,735.0
1941-06-11,699.0
1941-06-12,657.0
1941-06-13,579.0
1941-06-14,530.0
1941-06-15,495.0
1941-06-16,513.0
1941-06-17,513.0
1941-06-18,568.0
1941-06-19,651.0
1941-06-20,711.0
1941-06-21,747.0
1941-06-22,747.0
1941-06-23,753.0
1941-06-24,807.0
1941-06-25,789.0
1941-06-26,783.0
1941-06-27,771.0
1941-06-28,675.0
1941-06-29,590.0
1941-06-30,535.0
1941-07-01,460.0
1941-07-02,400.0
1941-07-03,360.0
1941-07-04,315.0
1941-07-05,305.0
1941-07-06,310.0
1941-07-07,305.0
1941-07-08,300.0
1941-07-09,285.0
1941-07-10,300.0
1941-07-11,280.0
1941-07-12,276.0
1941-07-13,290.0
1941-07-14,310.0
1941-07-15,271.0
1941-07-16,235.0
1941-07-17,223.0
1941-07-18,181.0
1941-07-19,192.0
1941-07-20,262.0
1941-07-21,276.0
1941-07-22,258.0
1941-07-23,295.0
1941-07-24,315.0
1941-07-25,271.0
1941-07-26,248.0
1941-07-27,253.0
1941-07-28,248.0
1941-07-29,240.0
1941-07-30,219.0
1941-07-31,219.0
1941-08-01,215.0
1941-08-02,199.0
1941-08-03,188.0
1941-08-04,181.0
1941-08-05,178.0
1941-08-06,184.0
1941-08-07,223.0
1941-08-08,235.0
1941-08-09,235.0
1941-08-10,262.0
1941-08-11,262.0
1941-08-12,244.0
1941-08-13,219.0
1941-08-14,211.0
1941-08-15,227.0
1941-08-16,235.0
1941-08-17,240.0
1941-08-18,258.0
1941-08-19,231.0
1941-08-20,211.0
1941-08-21,199.0
1941-08-22,192.0
1941-08-23,188.0
1941-08-24,178.0
1941-08-25,174.0
1941-08-26,164.0
1941-08-27,153.0
1941-08-28,139.0
1941-08-29,125.0
1941-08-30,128.0
1941-08-31,128.0
1941-09-01,122.0
1941-09-02,114.0
1941-09-03,106.0
1941-09-04,91.0
1941-09-05,89.0
1941-09-06,83.0
1941-09-07,76.0
1941-09-08,78.0
1941-09-09,83.0
1941-09-10,85.0
1941-09-11,78.0
1941-09-12,74.0
1941-09-13,70.0
1941-09-14,71.0
1941-09-15,73.0
1941-09-16,73.0
1941-09-17,68.0
1941-09-18,63.0
1941-09-19,62.0
1941-09-20,60.0
1941-09-21,59.0
1941-09-22,56.0
1941-09-23,60.0
1941-09-24,65.0
1941-09-25,63.0
1941-09-26,63.0
1941-09-27,63.0
1941-09-28,63.0
1941-09-29,68.0
1941-09-30,83.0
1941-10-01,80.0
1941-10-02,73.0